Volver al catálogo

SL-16 DEB

ActivoLEO
NORAD 22611·DEBRIS·🇷🇺 Russia

Lanzado Mar 26, 1993 desde Baikonur Cosmodrome

Loading…

Próximos Pases (próximas 24 horas)

TLE

ActualizadoSource: Space-Track

Época: Sep 14, 2026, 10:51 UTC

1 22611U 93016V   26257.45224688  .00000110  00000-0  13625-3 0  9994
2 22611  70.9888 287.7209 0172099 303.8594 120.7278 13.78785085681744

Sigue SL-16 DEB en tiempo real con AllMySat

Download on the App Store